Location: Hermaringen
(48.5952°N, 10.2585°E)
Time: 02:36:10
(UTC+00:00)

MOS 1 Rocket - Pass Details

Date: 18 November 2025
Orbit: 610 x 813 km, 97.4° (Epoch: 04 December)

Event Time Altitude Azimuth Distance (km) Brightness Sun altitude
Rises 17:38:39 0° 181° (S) 2,875 6.6 -20.0°
Reaches altitude 10° 17:40:51 10° 187° (S) 1,988 5.8 -20.4°
Maximum altitude 17:45:02 48° 262° (W) 838 4.1 -21.1°
Drops below altitude 10° 17:49:25 10° 337° (NNW) 2,090 6.0 -21.8°
Sets 17:51:47 0° 343° (NNW) 3,040 6.8 -22.2°
